Flag for U.S.A. Weather past 2 weeks in Sarasota, Florida, U.S.A.

Now
79 °F

Passing clouds.


Feels Like: 82 °F
Forecast: 76 / 85 °F
Wind: 10 mph from Southwest

Location: Sarasota-Bradenton International Airport

Current Time: Apr 25, 2015 at 9:16:45 PM

Latest Report: Apr 25, 2015 at 8:53 PM


Visibility: 10 mi

Pressure: 29.83 "Hg

Humidity: 82%

Dew point: 73 °F

Location of SarasotaLocation

Historic Weather in Sarasota — Graph

°F

Sarasota temperature yesterday

Maximum temperature yesterday: 85 °F (at 12:53 PM)
Minimum temperature yesterday: 75 °F (at 6:56 AM)
Average temperature yesterday: 80 °F

Past Weeks' High & Low Weather Summary

 TemperatureHumidityPressure
High86 °F (Apr 13, 12:53 PM)100% (Apr 17, 7:01 AM)30.15 "Hg (Apr 17, 7:01 AM)
Low67 °F (Apr 21, 3:53 AM)53% (Apr 22, 11:53 AM)29.83 "Hg (Apr 25, 7:53 PM)
Average77 °F81%29.99 "Hg
* Reported Apr 10 7:53 PM — Apr 25 7:53 PM, Sarasota, Weather by CustomWeather, © 2015

Note: Actual official high and low records may vary slightly from our data, if they occured in-between our weather recording intervals... More about our weather records

Advertising

Sarasota weather history for previous 24 hours

 ConditionsComfort  
Time TempWeatherWind HumidityBarometerVisibility
7:53 PM
Sat, Apr 25
80 °FBroken clouds.8 mph76%29.83 "Hg10 mi
6:53 PM81 °FPassing clouds.8 mph77%29.84 "Hg10 mi
5:53 PM83 °FPassing clouds.12 mph72%29.84 "Hg10 mi
4:53 PM84 °FPassing clouds.13 mph72%29.84 "Hg10 mi
3:53 PM83 °FScattered clouds.10 mph72%29.85 "Hg10 mi
2:53 PM84 °FSunny.13 mph72%29.88 "Hg10 mi
1:53 PM83 °FPassing clouds.13 mph74%29.91 "Hg10 mi
12:53 PM85 °FPassing clouds.12 mph68%29.94 "Hg10 mi
11:53 AM83 °FPartly sunny.12 mph74%29.96 "Hg10 mi
10:53 AM83 °FScattered clouds.13 mph74%29.94 "Hg10 mi
9:53 AM80 °FSunny.12 mph79%29.92 "Hg10 mi
8:53 AM77 °FSunny.12 mph82%29.92 "Hg10 mi
7:53 AM72 °FClear.8 mph93%29.92 "Hg10 mi
6:53 AM70 °FClear.8 mph97%29.90 "Hg10 mi
5:53 AM71 °FClear.7 mph93%29.89 "Hg10 mi
4:53 AM71 °FClear.8 mph93%29.88 "Hg10 mi
3:53 AM72 °FPassing clouds.10 mph91%29.89 "Hg10 mi
2:53 AM73 °FOvercast.9 mph88%29.93 "Hg10 mi
1:53 AM73 °FClear.10 mph88%29.93 "Hg10 mi
12:53 AM74 °FClear.10 mph85%29.95 "Hg10 mi
11:53 PM
Fri, Apr 24
75 °FClear.9 mph82%29.96 "Hg10 mi
10:53 PM75 °FClear.3 mph82%29.95 "Hg10 mi
9:53 PM76 °FClear.5 mph82%29.96 "Hg10 mi
Weather by CustomWeather, © 2015

See weather overviewHow to use our weather pages